Find OneWeb SL0272

NORAD ID: 48990 Int'l Des: 2021-060 Owner: ONEWEBN Country: UK Constellation: oneweb operational
LEOCIRCULARPOLARONEWEB_TYPE

当前视图

正在加载3D地球...

About OneWeb SL0272

OneWeb SL0272 (NORAD 48990) is a oneweb constellation satellite launched Jul 1, 2021 by ONEWEBN of UK. It operates in LEO, CIRCULAR, POLAR, ONEWEB_TYPE orbit with a mass of 148.00 kg.

关于 OneWeb SL0272

正在加载描述...

即将过境

Passes for default location (London). Set your location on the main map for personalized predictions.

高度历史

Loading altitude history...

两行轨道根数

1 48990U 21060Z 26170.09293325 .00000026 00000-0 35311-4 0 9993
2 48990 87.9095 228.4067 0001830 91.0461 269.0880 13.16592694239869
Epoch: Jun 19, 2026 • Age: 9 hours

当前状态

高度 1204.3 km
速度 7.26 km/s
星下点 47.98°N, 149.04°E
发射日期 Jul 1, 2021
运行时间 4.9 years
类型 internet

技术详情

分类 Payload
质量 148.00 kg
干质量 140.00 kg
总质量 148.00 kg
长度 1.30 m
直径 1.00 m
跨度 5.00 m
形状 Trapezoid+2 pan
制造商 ONEWUS
平台类型 ARROW
阶段状态 In Orbit
所有者/国家 ONEWEBN/UK

Most Searched